Harlan, IA

3:13 PM CST on December 11, 2019 (GMT -0600)
Harlan Municipal

Weather History for KHNR - October, 2019

Change the Weather History Date:

Sunday, October 27, 2019

  Actual Average Record
Temperature  
Mean Temperature 38 °F -  
Max Temperature 44 °F 59 °F 82 °F (1966)
Min Temperature 32 °F 39 °F 19 °F (1969)
Degree Days  
Heating Degree Days 27    
Moisture  
Dew Point 34 °F    
Average Humidity 81    
Maximum Humidity 100    
Minimum Humidity 66    
Precipitation  
Precipitation 0.00 in - - ()
Sea Level Pressure  
Sea Level Pressure 29.97 in    
Wind  
Wind Speed 10 mph ()    
Max Wind Speed 21 mph    
Max Gust Speed 26 mph    
Visibility 10.0 miles    
Events      
Averages and records for this station are not official NWS values.
T = Trace of Precipitation, MM = Missing Value Source: Averaged Metar Reports

Daily Weather History Graph

Daily Weather History Graph

Search for Another Location

Airport or City:

Astronomy

Oct. 27, 2019 Rise Set
Actual Time 7:47 AM CDT 6:22 PM CDT
Civil Twilight 7:18 AM CDT 6:51 PM CDT
Nautical Twilight 6:45 AM CDT 7:23 PM CDT
Astronomical Twilight 6:13 AM CDT 7:55 PM CDT
Moon 6:55 AM CDT (10/27) 6:33 PM CDT (10/27)
Length of Visible Light 11h 32m
Length of Day
10h 35m
Waning Crescent, 0% of the Moon is Illuminated
Oct 27
Waning Crescent
Oct 27
New
Nov 4
First Quarter
Nov 12
Full
Nov 19
Last Quarter

Hourly Weather History & Observations

Time (CDT) Temp. Windchill Dew Point Humidity Pressure Visibility Wind Dir Wind Speed Gust Speed Precip Events Conditions
12:15 AM 33.8 °F - 32.0 °F 93% 29.71 in 10.0 mi Calm Calm - N/A   Clear
12:35 AM 35.6 °F - 33.8 °F 93% 29.72 in 10.0 mi Calm Calm - N/A   Clear
12:55 AM 32.0 °F - 32.0 °F 100% 29.72 in 10.0 mi Calm Calm - N/A   Clear
1:15 AM 35.6 °F - 33.8 °F 93% 29.73 in 10.0 mi Calm Calm - N/A   Clear
1:35 AM 33.8 °F - 32.0 °F 93% 29.73 in 10.0 mi Calm Calm - N/A   Clear
1:55 AM 33.8 °F 28.6 °F 32.0 °F 93% 29.76 in 10.0 mi SW 5.8 mph - N/A   Clear
2:15 AM 37.4 °F 32.8 °F 35.6 °F 93% 29.76 in 10.0 mi NW 5.8 mph - N/A   Clear
2:35 AM 39.2 °F 34.2 °F 35.6 °F 87% 29.76 in 10.0 mi NNW 6.9 mph - N/A   Clear
2:55 AM 41.0 °F 33.9 °F 39.2 °F 93% 29.77 in 10.0 mi NW 12.7 mph - N/A   Clear
3:15 AM 41.0 °F 32.2 °F 39.2 °F 93% 29.78 in 10.0 mi NW 18.4 mph 25.3 mph N/A   Clear
3:35 AM 41.0 °F 32.5 °F 39.2 °F 93% 29.79 in 10.0 mi NW 17.3 mph - N/A   Clear
3:55 AM 41.0 °F 32.5 °F 39.2 °F 93% 29.82 in 10.0 mi NNW 17.3 mph 23.0 mph N/A   Clear
4:15 AM 41.0 °F 33.1 °F 39.2 °F 93% 29.82 in 10.0 mi NNW 15.0 mph 23.0 mph N/A   Partly Cloudy
4:35 AM 41.0 °F 32.5 °F 37.4 °F 87% 29.84 in 10.0 mi NNW 17.3 mph 24.2 mph N/A   Clear
4:55 AM 39.2 °F 30.2 °F 37.4 °F 93% 29.81 in 10.0 mi North 17.3 mph - N/A   Clear
5:15 AM 39.2 °F 32.0 °F 37.4 °F 93% 29.84 in 10.0 mi NNW 11.5 mph 17.3 mph N/A   Clear
5:35 AM 39.2 °F 31.2 °F 35.6 °F 87% 29.85 in 10.0 mi NNW 13.8 mph - N/A   Clear
5:55 AM 39.2 °F 30.8 °F 35.6 °F 87% 29.86 in 10.0 mi NNW 15.0 mph - N/A   Clear
6:15 AM 39.2 °F 31.2 °F 35.6 °F 87% 29.86 in 10.0 mi NNW 13.8 mph - N/A   Clear
6:35 AM 37.4 °F 32.1 °F 35.6 °F 93% 29.89 in 10.0 mi NNW 6.9 mph - N/A   Clear
7:15 AM 35.6 °F 28.6 °F 35.6 °F 100% 29.92 in 10.0 mi NW 9.2 mph - N/A   Clear
7:35 AM 37.4 °F 31.4 °F 35.6 °F 93% 29.93 in 10.0 mi NNW 8.1 mph - N/A   Clear
7:55 AM 37.4 °F 29.8 °F 35.6 °F 93% 29.94 in 10.0 mi NNW 11.5 mph - N/A   Mostly Cloudy
8:15 AM 39.2 °F 32.0 °F 37.4 °F 93% 29.95 in 10.0 mi NNW 11.5 mph 18.4 mph N/A   Overcast
8:35 AM 41.0 °F 32.5 °F 35.6 °F 81% 29.96 in 10.0 mi NNW 17.3 mph - N/A   Overcast
8:55 AM 41.0 °F 32.2 °F 35.6 °F 81% 29.97 in 10.0 mi NNW 18.4 mph 26.5 mph N/A   Overcast
9:15 AM 41.0 °F 32.8 °F 35.6 °F 81% 29.98 in 10.0 mi North 16.1 mph 23.0 mph N/A   Overcast
9:35 AM 41.0 °F 32.8 °F 35.6 °F 81% 29.99 in 10.0 mi North 16.1 mph 21.9 mph N/A   Overcast
9:55 AM 42.8 °F 35.1 °F 35.6 °F 76% 29.99 in 10.0 mi North 16.1 mph - N/A   Overcast
10:15 AM 42.8 °F 36.2 °F 35.6 °F 76% 29.99 in 10.0 mi North 12.7 mph 18.4 mph N/A   Overcast
10:35 AM 42.8 °F 34.8 °F 35.6 °F 76% 30.00 in 10.0 mi NNW 17.3 mph 23.0 mph N/A   Mostly Cloudy
10:55 AM 44.6 °F 38.1 °F 35.6 °F 71% 30.00 in 10.0 mi North 13.8 mph 24.2 mph N/A   Overcast
11:15 AM 44.6 °F 37.4 °F 35.6 °F 71% 30.00 in 10.0 mi North 16.1 mph - N/A   Overcast
11:35 AM 44.6 °F 38.1 °F 35.6 °F 71% 30.01 in 10.0 mi North 13.8 mph 19.6 mph N/A   Overcast
11:55 AM 44.6 °F 37.4 °F 35.6 °F 71% 30.02 in 10.0 mi NNW 16.1 mph - N/A   Overcast
12:15 PM 44.6 °F 37.2 °F 35.6 °F 71% 30.02 in 10.0 mi NNW 17.3 mph - N/A   Overcast
12:35 PM 42.8 °F 35.1 °F 35.6 °F 76% 30.02 in 10.0 mi NNW 16.1 mph - N/A   Overcast
12:55 PM 44.6 °F 37.8 °F 35.6 °F 71% 30.02 in 10.0 mi NNW 15.0 mph 23.0 mph N/A   Overcast
1:15 PM 44.6 °F 37.4 °F 35.6 °F 71% 30.02 in 10.0 mi NNW 16.1 mph 23.0 mph N/A   Overcast
1:35 PM 44.6 °F 37.2 °F 33.8 °F 66% 30.02 in 10.0 mi NNW 17.3 mph - N/A   Overcast
1:55 PM 44.6 °F 36.9 °F 33.8 °F 66% 30.02 in 10.0 mi NNW 18.4 mph - N/A   Overcast
2:15 PM 44.6 °F 38.1 °F 35.6 °F 71% 30.02 in 10.0 mi NW 13.8 mph 21.9 mph N/A   Overcast
2:35 PM 44.6 °F 37.4 °F 33.8 °F 66% 30.02 in 10.0 mi NNW 16.1 mph 23.0 mph N/A   Overcast
2:55 PM 42.8 °F 34.8 °F 33.8 °F 70% 30.02 in 10.0 mi NNW 17.3 mph - N/A   Overcast
3:15 PM 42.8 °F 34.3 °F 33.8 °F 70% 30.02 in 10.0 mi NNW 19.6 mph - N/A   Overcast
3:35 PM 42.8 °F 34.8 °F 33.8 °F 70% 30.03 in 10.0 mi NNW 17.3 mph - N/A   Overcast
3:55 PM 42.8 °F 34.8 °F 33.8 °F 70% 30.03 in 10.0 mi NNW 17.3 mph - N/A   Overcast
4:15 PM 42.8 °F 35.1 °F 33.8 °F 70% 30.04 in 10.0 mi NNW 16.1 mph - N/A   Overcast
4:35 PM 41.0 °F 31.6 °F 33.8 °F 76% 30.03 in 10.0 mi NNW 20.7 mph - N/A   Overcast
4:55 PM 41.0 °F 32.2 °F 33.8 °F 76% 30.03 in 10.0 mi NNW 18.4 mph - N/A   Overcast
5:15 PM 41.0 °F 32.8 °F 33.8 °F 76% 30.04 in 10.0 mi NNW 16.1 mph - N/A   Overcast
5:35 PM 41.0 °F 33.1 °F 33.8 °F 76% 30.04 in 10.0 mi NNW 15.0 mph - N/A   Overcast
5:55 PM 41.0 °F 33.9 °F 33.8 °F 76% 30.04 in 10.0 mi NNW 12.7 mph 19.6 mph N/A   Overcast
6:15 PM 41.0 °F 33.5 °F 33.8 °F 76% 30.05 in 10.0 mi NNW 13.8 mph - N/A   Overcast
6:35 PM 41.0 °F 33.9 °F 33.8 °F 76% 30.06 in 10.0 mi NNW 12.7 mph - N/A   Overcast
6:55 PM 41.0 °F 33.5 °F 33.8 °F 76% 30.07 in 10.0 mi NNW 13.8 mph 23.0 mph N/A   Overcast
7:15 PM 39.2 °F 30.5 °F 33.8 °F 81% 30.08 in 10.0 mi NW 16.1 mph - N/A   Overcast
7:35 PM 39.2 °F 31.2 °F 33.8 °F 81% 30.09 in 10.0 mi NNW 13.8 mph - N/A   Overcast
7:55 PM 39.2 °F 30.8 °F 33.8 °F 81% 30.10 in 10.0 mi NW 15.0 mph - N/A   Overcast
8:15 PM 37.4 °F 29.8 °F 33.8 °F 87% 30.10 in 9.0 mi NNW 11.5 mph 20.7 mph N/A   Overcast
8:35 PM 37.4 °F 29.3 °F 33.8 °F 87% 30.11 in 10.0 mi NNW 12.7 mph - N/A   Overcast
8:55 PM 37.4 °F 29.3 °F 33.8 °F 87% 30.12 in 10.0 mi NNW 12.7 mph - N/A   Overcast
9:15 PM 37.4 °F 28.9 °F 32.0 °F 81% 30.12 in 10.0 mi NNW 13.8 mph - N/A   Overcast
9:35 PM 35.6 °F 25.5 °F 32.0 °F 87% 30.13 in 9.0 mi NNW 17.3 mph - N/A   Overcast
9:55 PM 35.6 °F 24.8 °F 30.2 °F 81% 30.13 in 10.0 mi NNW 19.6 mph - N/A   Overcast
10:15 PM 35.6 °F 25.5 °F 30.2 °F 81% 30.14 in 10.0 mi NNW 17.3 mph - N/A   Overcast
10:35 PM 35.6 °F 26.6 °F 30.2 °F 81% 30.14 in 10.0 mi NNW 13.8 mph - N/A   Overcast
10:55 PM 35.6 °F 25.5 °F 28.4 °F 75% 30.14 in 10.0 mi NNW 17.3 mph - N/A   Overcast
11:15 PM 35.6 °F 26.2 °F 26.6 °F 70% 30.14 in 10.0 mi NNW 15.0 mph - N/A   Overcast
11:35 PM 35.6 °F 25.9 °F 26.6 °F 70% 30.14 in 10.0 mi NNW 16.1 mph 23.0 mph N/A   Overcast
11:55 PM 35.6 °F 25.2 °F 26.6 °F 70% 30.13 in 10.0 mi NNW 18.4 mph - N/A   Overcast